Powrót do katalogu

QIANFAN-76

AktywnyŁącznośćPO
NORAD 63162·PAYLOAD·🇨🇳 China

Wystrzelony Mar 11, 2025 z Wenchang Space Launch Site

Loading…

Następne Przeloty (najbliższe 24 godziny)

TLE

ŚwieżeSource: Space-Track

Epoka: Sep 14, 2026, 21:38 UTC

1 63162U 25046D   26257.90140748  .00000126  00000-0  17606-3 0  9992
2 63162  88.9653 291.4585 0015173  55.6019 304.6564 13.51021805 84642

Śledź QIANFAN-76 w czasie rzeczywistym z AllMySat

Download on the App Store